GW3602 Weather Reports


Display with metric or nautical units.
time (UTC)temp
F
wind
direction
speed
MPH
gust
MPH
rain 1hr
in
rain 24hr
in
rain mn
in
humidity
%
barometer
mb
20260904044514 67 63 0.0 1.0 0.00 1.91 0.00 93 1016.6
20260904043016 67 67 0.0 0.0 0.00 1.91 0.00 93 1016.7
20260904041524 67 67 0.0 1.0 0.00 1.91 0.00 93 1016.6
20260904040019 67 66 0.0 2.0 0.00 1.91 0.00 93 1016.5
20260904034517 67 358 0.0 2.0 0.00 1.91 1.91 93 1016.5
20260904033012 67 261 1.0 6.0 0.00 1.91 1.91 93 1016.2
20260904031518 67 210 0.0 5.0 0.00 1.91 1.91 93 1016.0
20260904030025 67 160 0.0 5.0 0.00 1.91 1.91 93 1016.0
20260904024522 67 259 0.0 4.0 0.00 1.91 1.91 93 1016.2
20260904023024 67 181 0.0 4.0 0.00 1.91 1.91 93 1016.2
20260904021530 67 184 0.0 4.0 0.00 1.91 1.91 93 1016.1
20260904020004 67 96 1.0 6.0 0.00 1.91 1.91 93 1015.7
20260904014508 67 149 1.0 8.0 0.00 1.91 1.91 93 1015.5
20260904013008 67 141 2.0 5.0 0.00 1.91 1.91 93 1015.5
20260904011514 67 202 0.0 4.0 0.00 1.91 1.91 93 1015.8
20260904010023 67 83 2.0 7.0 0.01 1.91 1.91 93 1016.0
20260904004505 67 91 3.0 6.0 0.03 1.91 1.91 93 1015.9
20260904003007 67 86 2.0 4.0 0.06 1.91 1.91 93 1016.1
20260904001512 67 110 2.0 6.0 0.09 1.91 1.91 93 1016.2
20260904000018 67 111 2.0 5.0 0.12 1.90 1.90 92 1016.6
20260903234525 67 67 0.0 2.0 0.26 1.88 1.88 92 1017.4
20260903233006 67 76 0.0 1.0 0.50 1.85 1.85 92 1018.3
20260903231512 68 292 1.0 4.0 1.01 1.82 1.82 92 1018.9
20260903230018 68 302 2.0 10.0 1.19 1.78 1.78 92 1018.6
20260903224533 68 46 2.0 12.0 1.03 1.62 1.62 91 1018.2
20260903223029 70 297 8.0 28.0 0.76 1.35 1.35 88 1018.1
20260903221545 74 107 1.0 7.0 0.22 0.81 0.81 86 1015.9
20260903220011 75 174 0.0 3.0 0.00 0.58 0.58 86 1016.0
20260903214517 76 98 1.0 2.0 0.00 0.58 0.58 84 1015.6
20260903213024 76 96 1.0 4.0 0.00 0.58 0.58 83 1015.5
20260903211526 77 86 1.0 3.0 0.00 0.58 0.58 83 1015.4
20260903210031 78 94 2.0 7.0 0.03 0.58 0.58 81 1014.5
20260903204511 79 75 3.0 4.0 0.21 0.58 0.58 79 1014.8
20260903203033 79 323 0.0 2.0 0.33 0.58 0.58 80 1014.5
20260903201522 77 304 0.0 4.0 0.41 0.58 0.58 84 1014.0
20260903200040 73 63 1.0 4.0 0.38 0.56 0.56 86 1014.6
20260903194522 74 335 2.0 9.0 0.20 0.38 0.38 85 1015.6
20260903193020 77 260 5.0 16.0 0.08 0.26 0.26 80 1016.3
20260903191503 90 295 3.0 9.0 0.00 0.18 0.18 57 1014.4
20260903190004 91 252 1.0 7.0 0.00 0.18 0.18 58 1014.8
20260903184508 91 186 1.0 5.0 0.00 0.18 0.18 60 1015.5
20260903183018 91 285 2.0 5.0 0.00 0.18 0.18 63 1015.5
20260903181518 89 100 2.0 5.0 0.00 0.18 0.18 65 1015.9
20260903180004 90 220 2.0 5.0 0.00 0.18 0.18 64 1015.8
20260903174504 89 169 1.0 4.0 0.00 0.18 0.18 66 1015.9
20260903173009 89 231 1.0 6.0 0.00 0.18 0.18 65 1016.2
20260903171512 88 300 1.0 7.0 0.00 0.18 0.18 67 1016.6
20260903170024 87 270 2.0 4.0 0.00 0.18 0.18 67 1016.5
20260903164503 87 278 1.0 8.0 0.00 0.18 0.18 68 1016.6
20260903163007 87 211 1.0 5.0 0.00 0.18 0.18 69 1017.0
20260903161510 85 268 1.0 4.0 0.00 0.18 0.18 70 1016.8
20260903160017 85 284 2.0 6.0 0.00 0.18 0.18 70 1016.9
20260903154521 84 221 1.0 5.0 0.00 0.18 0.18 72 1016.9
20260903153004 84 205 1.0 5.0 0.00 0.18 0.18 71 1017.0
20260903151507 84 339 1.0 6.0 0.00 0.18 0.18 71 1017.0
20260903150010 83 164 1.0 5.0 0.00 0.18 0.18 71 1017.1
20260903144516 83 239 1.0 4.0 0.00 0.18 0.18 71 1017.0
20260903143025 83 177 0.0 4.0 0.00 0.18 0.18 73 1017.0
20260903141529 82 116 0.0 3.0 0.00 0.18 0.18 75 1017.0
20260903140017 81 230 1.0 3.0 0.00 0.18 0.18 75 1017.0
20260903134517 80 152 0.0 2.0 0.00 0.18 0.18 76 1017.0
20260903133023 78 220 0.0 2.0 0.00 0.18 0.18 79 1017.2
20260903131527 77 143 0.0 2.0 0.00 0.18 0.18 80 1017.2
20260903130036 75 104 0.0 1.0 0.00 0.18 0.18 83 1017.3
20260903124511 73 127 1.0 3.0 0.00 0.18 0.18 85 1017.3
20260903123019 72 147 0.0 2.0 0.00 0.18 0.18 86 1017.1
20260903121526 71 107 0.0 2.0 0.00 0.18 0.18 89 1017.1
20260903120029 70 141 0.0 3.0 0.06 0.18 0.18 91 1017.2
20260903114534 69 143 0.0 1.0 0.09 0.18 0.18 90 1017.1
20260903113026 69 143 0.0 1.0 0.09 0.18 0.18 90 1016.7
20260903111522 68 84 1.0 5.0 0.15 0.18 0.18 89 1016.9
20260903110104 68 111 1.0 5.0 0.12 0.12 0.12 88 1017.7
20260903104508 68 117 2.0 3.0 0.09 0.09 0.09 87 1016.6
20260903103012 69 284 0.0 2.0 0.09 0.09 0.09 86 1017.5
20260903101518 70 16 1.0 11.0 0.03 0.03 0.03 82 1017.4
20260903100004 72 307 2.0 10.0 0.00 0.00 0.00 78 1018.0
20260903094510 73 341 8.0 18.0 0.00 0.00 0.00 77 1018.1
20260903093010 75 332 4.0 10.0 0.00 0.00 0.00 75 1017.0
20260903091513 74 166 0.0 2.0 0.00 0.00 0.00 74 1015.7
20260903090024 74 142 0.0 1.0 0.00 0.00 0.00 73 1015.9
20260903084503 74 155 0.0 2.0 0.00 0.00 0.00 73 1015.8
20260903083009 74 136 0.0 1.0 0.00 0.00 0.00 73 1015.7
20260903081509 74 141 0.0 3.0 0.00 0.00 0.00 73 1015.8
20260903080015 74 98 0.0 2.0 0.00 0.00 0.00 74 1015.8
20260903074523 73 155 0.0 0.0 0.00 0.00 0.00 74 1016.1
20260903073006 74 159 0.0 2.0 0.00 0.00 0.00 73 1016.2
20260903071511 74 188 0.0 0.0 0.00 0.00 0.00 73 1016.0
20260903070014 75 188 0.0 1.0 0.00 0.00 0.00 72 1016.2
20260903064517 76 271 2.0 4.0 0.00 0.00 0.00 70 1016.5
20260903063028 77 302 1.0 9.0 0.00 0.00 0.00 69 1016.7
20260903061546 78 301 5.0 11.0 0.00 0.00 0.00 68 1017.0
20260903060013 80 290 5.0 15.0 0.00 0.00 0.00 69 1017.0
20260903054537 81 297 2.0 7.0 0.00 0.00 0.00 73 1016.2
20260903053031 81 311 1.0 4.0 0.00 0.00 0.00 73 1016.0
20260903051529 81 264 2.0 4.0 0.00 0.00 0.00 73 1016.0
20260903050034 80 276 1.0 4.0 0.00 0.00 0.00 74 1015.6